Chillicothe, MO

7:10 PM CDT on October 14, 2019 (GMT -0500)
Chillicothe

Weather History for KCDJ - September, 2019

Change the Weather History Date:

Wednesday, September 18, 2019

  Actual Average (WUND) Record (WUND)
Temperature  
Mean Temperature 82 °F -  
Max Temperature 91 °F - - (-1)
Min Temperature 72 °F - - (-1)
Cooling Degree Days 16    
Growing Degree Days 32 (Base 50)    
Moisture  
Dew Point 71 °F    
Average Humidity 78    
Maximum Humidity 97    
Minimum Humidity 50    
Precipitation  
Precipitation 0.00 in - - ()
Sea Level Pressure  
Sea Level Pressure 29.96 in    
Wind  
Wind Speed 3 mph (SSE)    
Max Wind Speed 7 mph    
Max Gust Speed -    
Averages and records for this station are not official NWS values.
T = Trace of Precipitation, MM = Missing Value Source: NWS Daily Summary

Daily Weather History Graph

Daily Weather History Graph

Search for Another Location

Airport or City:

Astronomy

Sep. 18, 2019 Rise Set
Actual Time 6:57 AM CDT 7:18 PM CDT
Civil Twilight 6:30 AM CDT 7:45 PM CDT
Nautical Twilight 5:59 AM CDT 8:17 PM CDT
Astronomical Twilight 5:26 AM CDT 8:49 PM CDT
Moon 9:53 PM CDT (9/18) 11:01 AM CDT (9/18)
Length of Visible Light 13h 14m
Length of Day
12h 20m
Waning Gibbous, 82% of the Moon is Illuminated
Sep 18
Waning Gibbous
Sep 21
Last Quarter
Sep 28
New
Oct 5
First Quarter
Oct 13
Full

Hourly Weather History & Observations

Time (CDT) Temp. Heat Index Dew Point Humidity Pressure Visibility Wind Dir Wind Speed Gust Speed Precip Events Conditions
12:52 AM 75.0 °F - 70.0 °F 84% 29.96 in - Calm Calm - N/A   Unknown
1:52 AM 73.9 °F - 70.0 °F 87% 29.97 in - SE 3.5 mph - N/A   Unknown
2:52 AM 73.9 °F - 71.1 °F 91% 29.95 in - SE 3.5 mph - N/A   Unknown
3:52 AM 73.0 °F - 71.1 °F 93% 29.95 in - SE 3.5 mph - N/A   Unknown
4:52 AM 73.0 °F - 71.1 °F 93% 29.95 in - SE 4.6 mph - N/A   Unknown
5:52 AM 72.0 °F - 71.1 °F 97% 29.95 in - Calm Calm - N/A   Unknown
6:52 AM 72.0 °F - 70.0 °F 93% 29.96 in - SE 4.6 mph - N/A   Unknown
7:52 AM 73.0 °F - 70.0 °F 90% 29.96 in - SE 5.8 mph - N/A   Unknown
8:52 AM 75.0 °F - 70.0 °F 84% 29.97 in - SSE 6.9 mph - N/A   Unknown
9:52 AM 80.1 °F 83.2 °F 70.0 °F 71% 29.97 in - South 6.9 mph - N/A   Unknown
10:52 AM 82.0 °F 85.9 °F 70.0 °F 67% 29.97 in - Variable 6.9 mph - N/A   Unknown
11:52 AM 84.9 °F 90.7 °F 72.0 °F 65% 29.98 in - South 5.8 mph - N/A   Unknown
12:52 PM 87.1 °F 92.8 °F 71.1 °F 59% 29.98 in - South 5.8 mph - N/A   Unknown
1:52 PM 89.1 °F 96.0 °F 72.0 °F 57% 29.96 in - Variable 5.8 mph - N/A   Unknown
2:52 PM 91.0 °F 96.6 °F 70.0 °F 50% 29.95 in - SSW 5.8 mph - N/A   Unknown
3:52 PM 90.0 °F 96.4 °F 71.1 °F 54% 29.94 in - SSE 6.9 mph - N/A   Unknown
4:52 PM 91.0 °F 97.6 °F 71.1 °F 52% 29.92 in - South 5.8 mph - N/A   Unknown
5:52 PM 89.1 °F 94.1 °F 70.0 °F 53% 29.92 in - South 4.6 mph - N/A   Unknown
6:52 PM 82.9 °F 88.8 °F 73.0 °F 72% 29.93 in - Calm Calm - N/A   Unknown
7:52 PM 78.1 °F - 73.0 °F 84% 29.95 in - Calm Calm - N/A   Unknown
8:52 PM 75.9 °F - 73.0 °F 91% 29.96 in - Calm Calm - N/A   Unknown
9:52 PM 75.0 °F - 72.0 °F 90% 29.97 in - Calm Calm - N/A   Unknown
10:52 PM 73.9 °F - 72.0 °F 93% 29.95 in - Calm Calm - N/A   Unknown
11:52 PM 73.9 °F - 71.1 °F 91% 29.95 in - Calm Calm - N/A   Unknown